[keps] orb09190.amsat
Ray Hoad
r.hoad at att.net
Thu Jul 9 21:20:35 PDT 2009
SB KEPS @ AMSAT $ORB09190.O
Orbital Elements 09190.OSCAR
HR AMSAT ORBITAL ELEMENTS FOR OSCAR SATELLITES
FROM WA5QGD FORT WORTH,TX July 9, 2009
Send Subscribe/unsubscribe to KEPS at
http://www.amsat.org/mailman/listinfo/keps
BID: ORB09190.O
TO ALL RADIO AMATEURS BT
Satellite: AO-07
Catalog number: 07530
Epoch time: 09190.19511418
Element set: 524
Inclination: 101.4249 deg
RA of node: 214.0624 deg
Eccentricity: 0.0011770
Arg of perigee: 223.6401 deg
Mean anomaly: 136.3740 deg
Mean motion: 12.53575855 rev/day
Decay rate: -2.7e-07 rev/day^2
Epoch rev: 58547
Checksum: 276
Satellite: FO-29
Catalog number: 24278
Epoch time: 09189.81804486
Element set: 80
Inclination: 098.5519 deg
RA of node: 060.9453 deg
Eccentricity: 0.0349880
Arg of perigee: 294.4035 deg
Mean anomaly: 062.0970 deg
Mean motion: 13.52944050 rev/day
Decay rate: 4.9e-07 rev/day^2
Epoch rev: 63667
Checksum: 340
Satellite: SO-33
Catalog number: 25509
Epoch time: 09189.65393537
Element set: 0494
Inclination: 031.4324 deg
RA of node: 291.1091 deg
Eccentricity: 0.0354269
Arg of perigee: 166.2752 deg
Mean anomaly: 194.7795 deg
Mean motion: 14.28257456 rev/day
Decay rate: 3.24e-06 rev/day^2
Epoch rev: 55890
Checksum: 342
Satellite: RS-22
Catalog number: 27939
Epoch time: 09189.80617102
Element set: 0836
Inclination: 097.9430 deg
RA of node: 063.8873 deg
Eccentricity: 0.0014682
Arg of perigee: 066.1015 deg
Mean anomaly: 294.1731 deg
Mean motion: 14.63327136 rev/day
Decay rate: 3.8e-07 rev/day^2
Epoch rev: 30873
Checksum: 316
Satellite: VO-52
Catalog number: 28650
Epoch time: 09189.39079784
Element set: 0268
Inclination: 097.7422 deg
RA of node: 250.2712 deg
Eccentricity: 0.0026291
Arg of perigee: 322.4915 deg
Mean anomaly: 037.4467 deg
Mean motion: 14.81598574 rev/day
Decay rate: -4.6e-07 rev/day^2
Epoch rev: 22578
Checksum: 343
/EX
SB KEPS @ AMSAT $ORB09190.D
Orbital Elements 09190.MICROS
HR AMSAT ORBITAL ELEMENTS FOR THE MICROSATS
FROM WA5QGD FORT WORTH,TX July 9, 2009
Send Subscribe/unsubscribe to KEPS at
http://www.amsat.org/mailman/listinfo/keps
BID: ORB09190.D
TO ALL RADIO AMATEURS BT
Satellite: AO-16
Catalog number: 20439
Epoch time: 09189.86720796
Element set: 0648
Inclination: 098.2798 deg
RA of node: 157.2839 deg
Eccentricity: 0.0011874
Arg of perigee: 104.4726 deg
Mean anomaly: 255.7776 deg
Mean motion: 14.31827854 rev/day
Decay rate: -1.4e-07 rev/day^2
Epoch rev: 01625
Checksum: 351
Satellite: LO-19
Catalog number: 20442
Epoch time: 09189.64115808
Element set: 0565
Inclination: 098.2422 deg
RA of node: 164.2480 deg
Eccentricity: 0.0012994
Arg of perigee: 103.0034 deg
Mean anomaly: 257.2601 deg
Mean motion: 14.32063040 rev/day
Decay rate: -1.7e-07 rev/day^2
Epoch rev: 01638
Checksum: 270
Satellite: AO-27
Catalog number: 22825
Epoch time: 09189.91748463
Element set: 0286
Inclination: 098.4363 deg
RA of node: 142.6580 deg
Eccentricity: 0.0008264
Arg of perigee: 193.5822 deg
Mean anomaly: 166.5146 deg
Mean motion: 14.29268469 rev/day
Decay rate: -7.3e-07 rev/day^2
Epoch rev: 82301
Checksum: 338
Satellite: IO-26
Catalog number: 22826
Epoch time: 09189.69388125
Element set: 0014
Inclination: 098.4300 deg
RA of node: 143.1801 deg
Eccentricity: 0.0008538
Arg of perigee: 191.2947 deg
Mean anomaly: 168.8044 deg
Mean motion: 14.29520695 rev/day
Decay rate: -2.5e-07 rev/day^2
Epoch rev: 82308
Checksum: 315
Satellite: GO-32
Catalog number: 25397
Epoch time: 09189.93787524
Element set: 0938
Inclination: 098.3259 deg
RA of node: 211.1124 deg
Eccentricity: 0.0001611
Arg of perigee: 147.8537 deg
Mean anomaly: 212.2736 deg
Mean motion: 14.23161256 rev/day
Decay rate: 6.0e-07 rev/day^2
Epoch rev: 57122
Checksum: 303
Satellite: NO-44
Catalog number: 26931
Epoch time: 09190.46249744
Element set: 211
Inclination: 067.0513 deg
RA of node: 006.9565 deg
Eccentricity: 0.0005865
Arg of perigee: 275.3236 deg
Mean anomaly: 084.7193 deg
Mean motion: 14.29560311 rev/day
Decay rate: -2.15e-06 rev/day^2
Epoch rev: 40576
Checksum: 302
Satellite: SO-50
Catalog number: 27607
Epoch time: 09189.86851562
Element set: 0931
Inclination: 064.5594 deg
RA of node: 319.2392 deg
Eccentricity: 0.0064764
Arg of perigee: 200.5060 deg
Mean anomaly: 159.3457 deg
Mean motion: 14.71445462 rev/day
Decay rate: -1.31e-06 rev/day^2
Epoch rev: 35186
Checksum: 321
Satellite: CO-55
Catalog number: 27844
Epoch time: 09189.54386392
Element set: 0618
Inclination: 098.7127 deg
RA of node: 198.4058 deg
Eccentricity: 0.0011005
Arg of perigee: 081.3811 deg
Mean anomaly: 278.8601 deg
Mean motion: 14.20645545 rev/day
Decay rate: 3.5e-07 rev/day^2
Epoch rev: 31229
Checksum: 319
Satellite: CO-57
Catalog number: 27848
Epoch time: 09189.52437959
Element set: 0565
Inclination: 098.7144 deg
RA of node: 197.4485 deg
Eccentricity: 0.0010762
Arg of perigee: 086.4288 deg
Mean anomaly: 273.8116 deg
Mean motion: 14.20446825 rev/day
Decay rate: 2.3e-07 rev/day^2
Epoch rev: 31225
Checksum: 344
Satellite: AO-51
Catalog number: 28375
Epoch time: 09189.56476909
Element set: 0432
Inclination: 098.0514 deg
RA of node: 197.9207 deg
Eccentricity: 0.0085225
Arg of perigee: 060.1479 deg
Mean anomaly: 300.8146 deg
Mean motion: 14.40646367 rev/day
Decay rate: -4.0e-08 rev/day^2
Epoch rev: 26403
Checksum: 319
Satellite: CO-56
Catalog number: 28941
Epoch time: 09190.49153535
Element set: 240
Inclination: 098.1377 deg
RA of node: 009.1642 deg
Eccentricity: 0.0077522
Arg of perigee: 048.2193 deg
Mean anomaly: 312.6223 deg
Mean motion: 15.87571920 rev/day
Decay rate: 6.9356e-04 rev/day^2
Epoch rev: 19078
Checksum: 328
Satellite: GENESAT1
Catalog number: 29655
Epoch time: 09190.75951282
Element set: 752
Inclination: 040.0234 deg
RA of node: 041.8335 deg
Eccentricity: 0.0004148
Arg of perigee: 301.2155 deg
Mean anomaly: 058.8277 deg
Mean motion: 15.66023853 rev/day
Decay rate: 9.603e-05 rev/day^2
Epoch rev: 14601
Checksum: 285
Satellite: CP3
Catalog number: 31129
Epoch time: 09190.42833219
Element set: 52
Inclination: 097.9891 deg
RA of node: 242.4416 deg
Eccentricity: 0.0101454
Arg of perigee: 215.7618 deg
Mean anomaly: 143.6760 deg
Mean motion: 14.52146202 rev/day
Decay rate: 1.15e-06 rev/day^2
Epoch rev: 11811
Checksum: 270
Satellite: CO-65
Catalog number: 32785
Epoch time: 09190.88616821
Element set: 413
Inclination: 097.9446 deg
RA of node: 254.6654 deg
Eccentricity: 0.0014513
Arg of perigee: 322.1943 deg
Mean anomaly: 037.8249 deg
Mean motion: 14.81498190 rev/day
Decay rate: 2.38e-06 rev/day^2
Epoch rev: 6480
Checksum: 331
Satellite: KKS-1
Catalog number: 33493
Epoch time: 09190.46719678
Element set: 551
Inclination: 098.0584 deg
RA of node: 302.7752 deg
Eccentricity: 0.0020408
Arg of perigee: 166.0576 deg
Mean anomaly: 194.1205 deg
Mean motion: 14.80695027 rev/day
Decay rate: 1.58e-06 rev/day^2
Epoch rev: 2476
Checksum: 313
Satellite: SOHLA-1
Catalog number: 33496
Epoch time: 09190.44917436
Element set: 514
Inclination: 098.0392 deg
RA of node: 299.4114 deg
Eccentricity: 0.0005874
Arg of perigee: 202.8476 deg
Mean anomaly: 157.2468 deg
Mean motion: 14.69439043 rev/day
Decay rate: -.00000000 rev/day^2
Epoch rev: 2454
Checksum: 302
/EX
SB KEPS @ AMSAT $ORB09190.W
Orbital Elements 09190.WEATHER
HR AMSAT ORBITAL ELEMENTS FOR WEATHER SATELLITES
FROM WA5QGD FORT WORTH,TX July 9, 2009
Send Subscribe/unsubscribe to KEPS at
http://www.amsat.org/mailman/listinfo/keps
BID: ORB09190.W
TO ALL RADIO AMATEURS BT
Satellite: NOAA-10
Catalog number: 16969
Epoch time: 09190.44827055
Element set: 678
Inclination: 098.6897 deg
RA of node: 216.9734 deg
Eccentricity: 0.0012904
Arg of perigee: 129.1191 deg
Mean anomaly: 231.1144 deg
Mean motion: 14.27390197 rev/day
Decay rate: 4.4e-07 rev/day^2
Epoch rev: 18668
Checksum: 333
Satellite: NOAA-11
Catalog number: 19531
Epoch time: 09190.34149911
Element set: 697
Inclination: 098.7866 deg
RA of node: 279.9535 deg
Eccentricity: 0.0012168
Arg of perigee: 048.6069 deg
Mean anomaly: 311.6137 deg
Mean motion: 14.14897775 rev/day
Decay rate: -1.66e-06 rev/day^2
Epoch rev: 7265
Checksum: 348
Satellite: NOAA-12
Catalog number: 21263
Epoch time: 09190.70739626
Element set: 182
Inclination: 098.7704 deg
RA of node: 198.7779 deg
Eccentricity: 0.0013515
Arg of perigee: 081.8535 deg
Mean anomaly: 278.4653 deg
Mean motion: 14.25584686 rev/day
Decay rate: 4.6e-07 rev/day^2
Epoch rev: 94364
Checksum: 346
Satellite: MET-3/5
Catalog number: 21655
Epoch time: 09189.95240727
Element set: 0628
Inclination: 082.5527 deg
RA of node: 191.1181 deg
Eccentricity: 0.0014394
Arg of perigee: 122.1030 deg
Mean anomaly: 238.1491 deg
Mean motion: 13.17019949 rev/day
Decay rate: 5.1e-07 rev/day^2
Epoch rev: 86049
Checksum: 303
Satellite: MET-2/21
Catalog number: 22782
Epoch time: 09190.45187329
Element set: 505
Inclination: 082.5468 deg
RA of node: 164.3477 deg
Eccentricity: 0.0020819
Arg of perigee: 285.8482 deg
Mean anomaly: 074.0381 deg
Mean motion: 13.83635864 rev/day
Decay rate: -3.6e-07 rev/day^2
Epoch rev: 80068
Checksum: 329
Satellite: OKEAN-4
Catalog number: 23317
Epoch time: 09189.69512621
Element set: 0957
Inclination: 082.5418 deg
RA of node: 314.4137 deg
Eccentricity: 0.0020679
Arg of perigee: 296.5911 deg
Mean anomaly: 063.3174 deg
Mean motion: 14.82706204 rev/day
Decay rate: -2.7e-07 rev/day^2
Epoch rev: 79555
Checksum: 318
Satellite: NOAA-14
Catalog number: 23455
Epoch time: 09190.25174822
Element set: 682
Inclination: 098.9094 deg
RA of node: 267.8548 deg
Eccentricity: 0.0010319
Arg of perigee: 126.1433 deg
Mean anomaly: 234.0696 deg
Mean motion: 14.13765623 rev/day
Decay rate: 8.3e-07 rev/day^2
Epoch rev: 74904
Checksum: 317
Satellite: NOAA-15
Catalog number: 25338
Epoch time: 09190.31481598
Element set: 999
Inclination: 098.5836 deg
RA of node: 179.0368 deg
Eccentricity: 0.0010533
Arg of perigee: 000.2080 deg
Mean anomaly: 359.9104 deg
Mean motion: 14.24770768 rev/day
Decay rate: -9.6e-07 rev/day^2
Epoch rev: 57992
Checksum: 343
